Location: Bastogne Gables
(35.1554°N, 78.9900°W)
Time: 21:36:41
(UTC+00:00)

AQUARIUS - Pass Details

Date: 08 March 2021
Orbit: 650 x 652 km, 98.0° (Epoch: 16 April)

Event Time Altitude Azimuth Distance (km) Brightness Sun altitude
Rises 10:45:24 0° 28° (NNE) 2,975 8.0 -11.1°
Reaches altitude 10° 10:48:01 10° 43° (NE) 2,059 7.4 -10.6°
Maximum altitude 10:51:35 23° 96° (E) 1,385 7.0 -9.9°
Drops below altitude 10° 10:55:06 10° 148° (SSE) 2,046 7.2 -9.2°
Sets 10:57:42 0° 163° (SSE) 2,951 7.8 -8.6°
